RH
6 6 6 6 7 7 7 7 8 8 8 9 9 10 10 10 11 12 12 12 12 12 12 12 11 11 11 11 11 10 10 10 11 11 11 11 12 13 14 15 16 17 17 17 16 16 15 15 14 14 14 14 15 15 16 17 16 16 15 16 18 20 22 25 28 32 35 38 37 33 29 25 21 17 13 12 14 18 24 30 36 40 42 44 44
6 6 6 6 6 6 7 7 7 7 8 8 9 9 9 9 10 10 10 10 10 10 10 10 10 10 10 10 10 10 9 10 9 10 10 10 10 10 11 12 13 13 14 15 15 16 16 16 16 15 15 14 14 14 15 16 17 17 17 16 16 16 17 19 21 24 27 32 36 39 38 37 35 29 23 17 13 12 13 16 21 28 34 40 43
6 6 6 6 7 6 7 7 7 7 8 8 8 8 8 8 9 9 9 9 9 9 8 9 9 9 9 9 9 9 9 9 9 9 9 9 9 9 10 10 11 11 12 12 13 13 14 14 15 16 16 16 15 15 15 15 16 16 17 17 18 17 17 16 17 18 21 24 28 33 36 38 42 42 37 31 25 19 15 14 14 16 21 27 35
6 6 6 6 6 7 7 6 7 7 7 7 7 7 7 8 8 8 8 8 7 7 7 7 7 8 8 8 8 8 8 8 8 8 8 8 9 9 9 9 10 10 10 10 11 11 12 12 13 14 15 16 16 17 16 16 16 16 16 16 17 17 18 19 18 16 15 17 20 25 28 32 39 44 46 45 40 32 25 21 20 17 16 16 21
6 6 6 6 6 6 6 6 6 6 6 6 6 6 7 7 7 7 7 7 6 6 7 7 6 7 7 7 7 7 7 7 7 7 8 8 9 9 9 9 9 9 9 10 10 10 11 11 12 12 13 14 15 17 18 18 18 17 17 17 17 17 17 18 19 19 17 16 15 17 20 24 30 36 42 46 45 43 38 32 28 25 21 18 16
5 5 5 5 5 5 5 5 5 5 5 5 5 5 6 6 6 6 6 6 6 6 6 6 6 6 6 6 6 6 6 7 7 7 8 8 9 9 9 9 9 9 9 10 10 10 10 10 11 11 12 12 13 14 16 18 19 20 20 19 18 18 18 18 18 19 19 19 17 16 16 17 21 25 32 37 40 44 45 41 38 34 32 28 24
4 5 4 4 4 4 4 4 4 4 4 4 4 4 4 5 5 5 5 5 5 5 5 5 5 5 5 5 5 6 6 6 7 7 7 8 9 9 9 9 9 9 9 10 10 10 9 10 10 10 11 11 11 12 12 14 16 18 20 21 21 20 19 18 19 19 18 18 18 18 17 16 17 18 22 26 31 37 40 40 41 43 42 38 34
4 4 4 4 4 4 3 4 3 3 3 3 3 3 4 4 4 4 4 4 4 4 4 4 4 4 4 5 5 5 5 5 6 6 6 7 7 8 8 8 8 8 8 8 8 8 8 8 8 9 9 9 9 10 10 11 12 13 15 17 20 21 21 20 19 20 19 18 17 18 18 18 18 18 18 19 21 26 31 33 36 41 44 44 42
4 3 3 3 3 3 3 3 3 3 3 3 3 3 3 3 3 3 3 3 3 3 3 3 3 3 3 4 4 4 4 4 5 5 5 6 6 7 7 7 7 7 7 7 7 7 7 7 7 7 7 7 8 7 8 8 8 9 11 12 14 17 20 21 20 20 19 19 18 17 17 18 19 19 19 18 18 19 22 26 29 33 37 41 44
3 3 3 3 3 3 3 3 2 2 2 2 2 2 2 3 2 3 3 3 3 2 3 3 3 3 3 3 3 3 3 3 4 4 4 5 5 6 6 5 5 5 6 6 6 6 6 6 6 6 6 7 6 6 6 6 6 6 7 8 10 11 15 18 20 20 19 19 18 17 17 17 18 19 19 20 19 19 18 20 22 25 29 33 39
3 3 3 3 3 3 2 2 2 2 2 2 2 2 2 2 2 2 2 2 2 2 2 2 2 2 2 2 3 2 3 3 3 3 4 4 4 4 4 4 4 4 4 4 4 5 5 5 5 5 6 6 6 6 6 5 6 5 5 6 6 7 9 12 16 19 19 19 18 17 16 16 17 18 19 20 20 21 21 20 19 19 22 25 30
4 3 3 3 3 3 2 2 2 2 2 2 2 2 2 2 2 2 2 2 2 2 2 2 2 2 2 2 2 2 2 3 3 3 3 3 3 3 4 3 3 3 3 3 3 3 3 4 4 4 4 5 5 5 6 5 5 5 5 5 5 5 6 7 10 14 17 18 18 17 16 16 16 16 18 19 20 21 21 23 22 20 18 18 22
4 4 4 4 3 3 3 3 3 2 2 2 2 2 2 2 2 2 2 2 2 2 2 2 2 2 2 2 2 2 2 2 3 3 3 3 3 3 3 3 3 3 3 3 3 3 3 3 3 3 3 4 4 4 5 5 5 5 5 4 4 4 4 5 6 8 11 14 16 16 15 15 15 15 16 17 19 21 21 22 24 24 22 19 18
4 4 4 4 4 4 3 3 3 3 3 3 2 2 2 2 2 2 2 2 2 3 3 2 2 2 2 2 2 2 2 3 3 3 3 2 3 2 2 2 2 2 2 2 2 2 2 2 2 2 2 2 3 3 3 3 4 4 4 4 4 4 4 4 5 5 7 9 12 14 15 15 14 14 15 15 16 19 21 21 23 25 26 23 20
4 3 3 3 3 3 3 3 3 3 3 3 2 2 2 2 2 2 2 2 2 2 2 3 2 2 2 2 2 2 3 3 2 3 3 2 2 2 2 2 2 2 2 2 2 2 2 2 2 2 2 2 2 2 2 3 3 3 3 3 4 4 4 4 4 5 5 6 7 10 13 14 14 13 13 13 14 16 18 20 22 24 26 26 25
3 3 3 3 3 3 3 3 3 3 2 2 2 2 2 2 2 2 2 2 2 2 2 2 2 2 2 2 2 3 3 3 3 3 2 3 3 2 2 2 2 2 2 2 2 2 2 2 2 2 2 2 2 2 2 2 2 2 2 3 3 3 4 4 4 4 5 5 5 6 9 11 13 13 12 12 12 13 15 17 19 21 24 26 27
3 3 3 3 3 3 3 3 3 3 2 2 2 2 2 2 2 2 2 2 2 2 2 2 2 3 3 3 3 3 3 3 3 3 3 3 3 3 3 3 3 3 3 3 2 2 2 2 2 2 2 2 2 2 2 2 2 2 2 2 2 2 3 3 3 4 4 5 4 5 6 8 10 12 12 11 11 11 12 14 16 18 20 24 26
3 3 3 2 3 3 3 3 3 3 3 3 2 3 2 2 2 2 2 2 2 2 3 3 3 3 3 3 3 3 3 3 3 3 3 3 4 4 3 3 3 3 3 3 3 3 3 3 3 2 2 2 2 2 2 2 2 2 2 2 2 2 2 2 3 3 3 4 4 4 4 5 7 9 11 11 11 10 10 11 13 14 16 20 23
3 3 3 3 3 3 3 3 3 3 3 3 2 3 3 2 3 2 2 3 2 3 3 3 3 3 3 3 3 3 3 3 3 3 3 3 4 4 3 4 4 3 3 3 3 3 3 3 3 3 2 2 2 2 2 2 2 2 3 3 3 3 2 2 2 2 3 3 3 4 4 4 5 6 8 10 11 10 9 10 11 12 13 15 18
3 3 3 2 2 3 3 3 3 3 3 3 3 3 3 3 3 3 3 3 2 2 2 2 2 2 3 2 3 3 3 3 3 3 3 4 3 3 4 4 3 3 3 3 3 3 3 3 3 2 2 2 2 2 2 2 2 2 2 2 3 3 2 3 3 2 3 3 3 3 3 4 4 4 6 8 10 11 10 9 9 10 11 12 14
3 3 2 3 2 2 2 2 2 3 2 3 3 3 3 3 3 3 3 3 3 3 3 3 3 3 3 3 3 3 3 3 3 3 4 3 3 4 3 3 3 3 3 3 3 2 2 2 2 2 2 2 2 2 2 2 2 2 2 2 2 3 3 3 3 3 3 2 2 3 3 3 3 4 4 5 7 10 10 10 8 8 9 10 11
3 3 2 3 2 2 2 2 2 3 2 3 2 3 3 3 3 3 3 3 3 3 3 3 3 3 3 3 3 3 3 3 3 3 3 3 3 3 3 3 3 2 2 2 2 2 2 2 2 2 2 2 2 2 2 1 2 2 2 2 2 2 2 3 3 3 3 3 3 3 2 3 3 3 3 4 5 7 9 10 9 8 8 8 9
3 3 3 3 3 3 2 2 3 2 2 3 2 3 3 2 3 3 3 3 3 3 3 3 3 3 3 3 3 3 3 3 3 2 2 3 2 2 2 2 2 2 2 2 2 2 2 2 2 2 2 2 2 2 2 2 2 1 2 2 2 2 2 2 2 2 2 2 3 3 3 3 3 3 3 3 4 5 7 8 9 8 7 7 8
3 3 3 3 2 3 2 2 3 2 2 3 2 3 3 3 3 3 3 3 3 3 3 3 3 3 3 3 2 2 2 2 2 2 2 2 2 2 2 2 2 2 2 2 2 2 2 2 2 2 2 2 2 2 2 2 2 2 2 2 2 2 2 2 2 2 2 2 2 3 3 3 2 3 2 3 3 3 4 7 8 8 7 7 7
3 3 3 3 2 2 2 2 2 2 2 2 2 3 3 3 3 3 3 3 3 3 3 3 3 2 2 2 2 2 2 2 2 2 2 2 2 2 2 2 2 2 2 2 2 2 2 2 2 2 2 2 2 2 2 2 2 2 2 2 2 2 2 2 2 2 2 2 2 2 3 3 3 2 2 2 3 3 3 4 6 7 7 7 7
3 3 3 3 2 2 2 2 2 2 2 2 2 2 2 3 2 2 2 2 2 2 2 2 2 2 2 2 2 2 2 2 2 2 2 2 2 2 2 2 2 2 2 2 2 2 2 2 2 2 2 2 2 2 2 2 2 2 2 2 2 2 2 2 2 2 2 2 2 2 2 2 3 2 3 2 2 3 3 3 4 6 7 7 7
2 3 2 2 2 2 2 2 2 2 2 2 2 2 2 2 2 2 2 2 2 2 2 2 2 2 2 2 2 2 2 2 2 2 2 2 2 2 2 2 2 2 2 2 2 2 2 2 2 2 2 2 2 2 2 2 2 2 2 2 2 2 2 2 2 2 2 2 2 2 2 2 3 3 3 3 3 2 3 3 3 4 5 6 7
2 3 2 2 2 2 2 3 2 3 2 2 2 2 2 2 2 2 2 2 2 2 2 2 2 2 2 2 2 2 2 2 2 2 2 2 2 3 2 2 2 2 2 2 2 2 2 2 2 2 2 2 2 2 2 2 2 2 2 2 2 2 2 2 2 2 2 2 2 2 2 2 2 3 3 3 3 3 3 3 3 3 4 5 6
3 3 2 2 2 2 2 3 2 3 2 2 3 2 2 2 2 2 2 2 2 2 2 2 2 2 2 2 2 2 2 2 2 2 2 3 3 3 3 3 2 2 2 2 2 2 2 2 2 2 2 2 2 2 2 2 2 2 2 2 2 2 2 2 2 2 2 2 2 2 2 2 2 2 3 3 3 3 3 3 3 3 3 4 5
3 3 2 2 2 2 2 2 2 3 2 2 3 2 2 2 2 2 2 2 2 2 2 2 2 2 2 2 2 2 2 2 2 2 2 3 3 3 3 3 2 2 2 2 2 2 2 2 2 2 2 2 3 2 2 2 2 2 2 2 2 2 2 2 2 2 2 2 2 2 2 2 2 2 2 2 3 3 2 3 3 3 3 3 4
3 3 2 2 2 2 2 2 2 2 2 2 2 2 3 3 3 3 2 2 2 2 2 2 2 2 2 2 2 2 2 2 2 2 3 3 3 3 3 3 3 3 3 2 2 2 2 3 2 2 2 2 3 2 2 2 2 2 2 2 2 2 2 2 2 2 2 2 2 2 2 2 2 2 2 2 2 3 2 3 3 3 3 3 3
3 3 3 2 3 3 3 3 3 2 3 3 2 3 3 3 3 3 3 3 3 3 3 3 3 3 2 2 3 2 2 2 2 2 2 3 3 3 3 3 3 3 3 3 3 2 3 3 3 3 3 2 3 3 3 3 2 2 2 2 2 2 2 2 2 2 2 2 2 2 2 2 2 2 2 2 2 3 2 3 3 3 3 3 3
4 3 3 3 3 3 3 3 3 3 3 3 3 3 3 3 3 3 3 3 3 3 3 3 3 3 3 3 3 3 3 3 3 3 3 3 3 3 3 3 3 3 3 3 3 3 3 3 3 3 3 3 3 3 3 3 3 2 3 2 2 2 2 2 2 2 2 2 2 2 2 2 2 2 2 2 2 3 2 3 3 3 3 3 3
4 3 3 3 3 3 3 3 3 3 3 3 3 3 3 3 3 3 3 3 3 3 3 3 3 3 3 3 3 3 3 3 3 3 3 3 3 3 3 3 3 4 3 3 3 3 3 4 3 3 3 3 3 3 3 3 3 3 3 3 3 3 2 2 2 2 2 2 2 2 2 2 2 2 2 2 2 2 3 3 3 3 3 3 3
4 4 3 3 3 3 3 3 3 4 3 3 4 4 4 4 3 3 3 3 3 3 3 3 3 3 3 3 3 3 3 2 3 3 3 3 3 3 3 3 3 4 4 4 4 4 4 3 3 3 3 3 3 3 3 3 3 3 3 3 3 3 3 3 2 2 2 2 2 2 2 2 2 2 2 2 2 2 2 3 3 3 3 3 3
4 4 4 4 3 3 3 3 4 4 4 4 4 4 4 4 4 4 4 3 3 3 3 3 3 3 3 3 2 3 3 2 3 3 3 3 3 3 3 3 3 3 3 3 4 4 4 3 3 3 3 4 3 3 3 3 3 3 3 3 3 2 3 3 2 3 2 2 2 2 2 2 2 2 2 2 3 2 3 3 3 3 3 3 3
4 4 4 4 4 3 3 3 4 4 4 4 4 4 4 4 4 4 4 4 4 3 3 3 3 3 3 3 3 3 2 3 3 3 3 3 3 3 3 3 3 3 3 4 3 4 4 3 4 3 3 4 3 3 3 3 3 3 3 3 3 3 3 3 3 3 3 3 3 2 2 2 2 2 2 2 3 2 3 3 3 3 3 3 3
4 4 4 4 4 3 3 4 4 4 4 4 4 4 4 4 4 4 4 4 4 4 4 4 3 4 3 3 3 3 3 3 3 2 3 3 3 3 3 3 3 3 3 3 3 3 4 3 3 3 3 3 3 3 3 3 3 3 3 3 3 3 3 3 3 3 3 3 3 3 3 3 2 3 2 2 3 3 3 3 3 3 3 3 3
5 5 5 5 4 4 3 3 4 4 4 4 4 4 4 4 4 4 4 4 4 4 4 4 4 4 4 3 3 3 3 3 3 3 3 3 3 3 3 3 3 3 3 3 3 3 3 3 3 3 3 3 3 3 3 3 3 3 3 3 3 3 3 3 3 3 3 3 3 3 3 3 3 3 3 3 3 3 3 3 3 3 3 3 3
4 5 5 5 5 5 4 3 3 4 4 4 4 4 4 4 4 4 4 4 4 4 4 4 4 4 4 4 3 4 3 3 3 3 3 3 3 3 3 3 3 3 3 3 3 3 3 3 3 3 3 3 3 3 3 3 3 3 3 3 3 3 3 3 3 3 3 3 3 3 3 3 3 3 3 4 3 3 3 3 3 3 3 3 3
4 4 5 5 5 5 5 4 4 4 4 4 4 4 4 4 4 4 4 4 4 4 4 4 4 3 4 3 3 3 3 3 4 3 3 4 3 3 3 3 3 3 4 3 3 3 3 3 3 3 3 3 3 4 4 3 3 3 3 3 3 3 3 3 3 3 3 3 4 4 4 4 4 4 4 4 4 4 4 3 3 3 3 2 3
4 4 4 5 5 5 5 5 4 4 4 4 5 5 4 4 4 4 4 4 4 4 4 4 4 3 3 3 3 3 3 3 3 3 3 3 3 3 4 4 4 4 4 4 4 4 4 4 4 3 3 3 3 4 4 4 4 3 3 3 3 3 3 3 3 3 4 4 4 4 4 4 4 4 4 4 4 4 4 4 3 3 3 3 3
4 4 4 5 5 5 5 5 5 4 4 4 5 5 4 5 5 4 4 4 4 4 4 4 4 4 3 4 4 3 3 3 3 3 3 3 3 4 3 3 4 4 4 4 4 4 4 4 4 4 4 4 4 4 3 4 4 3 4 4 3 3 3 3 3 3 3 4 4 4 4 5 4 4 4 4 5 4 4 4 4 3 3 3 3
5 4 4 4 5 5 5 6 5 5 4 4 4 5 5 5 5 5 5 5 4 4 4 4 4 4 4 4 4 3 3 3 3 3 3 3 4 4 4 4 4 4 4 4 4 4 4 4 4 4 4 4 4 4 4 4 4 4 4 4 4 4 4 3 4 4 4 4 4 4 4 4 4 4 4 4 4 4 5 4 4 4 4 3 3
6 5 4 4 5 5 5 6 6 5 5 4 4 4 5 5 5 5 5 5 5 4 4 4 4 4 4 4 4 4 4 3 3 4 4 4 4 4 4 4 4 4 4 4 4 4 4 4 4 4 4 4 4 4 4 4 4 4 4 4 4 4 4 4 4 4 4 4 4 4 4 4 4 4 4 4 4 4 5 5 4 4 4 4 4
6 6 5 4 4 4 5 5 5 6 5 5 4 4 5 5 5 5 5 5 5 5 4 4 4 4 4 4 4 4 4 4 4 4 4 4 4 4 4 4 4 4 4 4 4 4 4 4 4 4 4 4 4 4 4 4 4 4 4 4 4 4 4 4 4 4 5 5 5 5 4 4 4 4 5 5 5 5 4 4 4 4 4 4 5
6 6 6 5 4 4 5 5 5 6 6 6 5 5 5 5 5 6 6 5 5 5 4 4 4 4 4 4 4 4 4 4 4 4 4 4 4 4 5 5 4 5 4 4 4 4 4 4 4 4 4 4 4 4 4 4 4 4 4 4 4 4 4 4 4 4 4 5 5 5 5 5 5 5 4 5 5 5 5 4 4 4 4 4 5
6 6 6 6 5 5 4 4 5 5 6 6 6 5 5 5 5 6 6 6 6 6 5 5 4 4 4 4 4 4 4 4 4 4 4 5 5 5 5 4 5 5 5 4 4 4 4 5 4 5 4 4 4 4 4 4 4 4 4 4 4 4 4 4 4 4 4 4 4 5 5 5 5 5 5 5 5 5 5 5 5 4 4 4 4
6 5 6 7 6 5 5 4 5 5 5 6 6 6 6 5 5 5 6 6 6 6 6 5 5 5 5 4 4 4 4 4 4 4 5 5 5 5 5 5 5 5 5 5 5 5 5 5 5 5 5 5 5 5 4 4 4 4 4 4 4 4 4 4 4 4 4 4 4 4 4 5 5 5 5 5 5 5 5 5 5 5 4 4 4
8 6 6 6 7 6 6 5 5 5 5 6 6 6 6 6 5 5 5 6 6 6 6 6 5 5 5 5 5 5 4 5 5 4 5 5 5 5 5 5 5 5 5 5 5 5 5 5 5 5 5 5 5 5 5 5 4 4 4 4 4 4 4 4 4 4 4 4 4 4 4 4 4 4 4 5 5 5 5 5 5 5 5 5 4
13 7 6 6 6 7 6 6 5 5 5 5 6 6 7 7 6 6 5 6 6 7 7 6 6 5 5 5 5 5 5 5 5 5 5 5 5 5 5 5 6 6 5 5 5 5 5 5 5 5 5 5 5 5 5 5 5 5 5 5 4 4 4 4 4 4 4 4 4 4 4 4 4 4 4 4 5 5 5 5 5 5 5 5 5
Wind_Speed
73 75 76 79 81 84 85 87 89 91 93 95 96 98 99 100 101 102 104 105 106 107 109 110 110 110 109 110 110 110 111 112 113 115 116 118 119 120 121 123 123 124 124 124 124 125 125 126 126 127 127 128 128 128 128 128 128 129 130 132 133 134 135 135 134 133 132 131 131 129 128 127 128 129 131 132 134 135 137 138 139 138 137 136 135
70 71 73 76 78 80 81 83 85 87 88 90 92 95 96 98 99 100 101 103 104 105 106 106 107 106 106 107 107 107 108 108 109 110 111 112 113 115 116 118 120 121 122 123 124 124 124 125 125 126 126 127 127 127 128 128 128 128 129 129 130 131 133 134 136 136 135 134 134 133 131 129 128 128 129 129 129 129 130 132 135 137 138 138 137
69 70 71 73 74 76 78 80 81 82 84 86 88 90 91 93 94 96 97 99 100 100 101 101 102 102 102 103 103 103 103 104 104 104 105 107 107 109 110 112 115 116 118 119 120 121 122 122 123 124 124 125 126 126 127 127 128 129 129 129 128 128 129 131 133 135 136 136 137 136 135 132 130 129 129 127 127 126 126 127 129 131 134 136 137
69 69 70 71 72 73 75 77 78 78 81 83 84 86 87 88 90 92 93 95 95 96 96 97 97 98 98 98 98 99 99 99 100 100 100 101 102 104 105 107 108 109 111 112 114 115 116 117 119 120 121 122 124 125 126 127 127 128 129 129 129 128 128 128 130 132 134 135 137 138 137 136 134 132 131 129 128 128 126 125 125 126 128 130 133
70 70 70 70 70 71 73 74 75 76 78 80 82 83 84 85 88 89 90 91 92 92 93 93 94 94 95 95 95 95 95 95 96 97 97 98 100 101 103 104 104 105 105 107 108 109 111 112 114 115 117 119 120 122 124 125 127 127 128 129 129 129 129 129 129 131 131 132 134 136 137 137 136 135 135 134 132 131 129 127 125 125 125 126 127
70 70 70 70 70 71 72 72 73 74 76 78 79 80 81 84 86 87 88 89 90 90 90 90 91 91 92 91 91 92 92 92 93 94 94 96 98 100 101 102 103 103 104 105 107 107 108 110 111 112 113 115 118 119 121 123 125 126 127 128 129 129 129 129 130 130 131 131 132 133 134 136 136 136 137 137 135 134 133 130 128 126 125 125 124
70 70 70 69 69 70 71 72 72 73 74 76 77 78 79 81 83 84 85 87 87 88 88 89 89 89 89 89 89 89 89 89 90 91 91 93 96 98 100 101 102 102 103 104 105 106 107 107 108 110 111 113 115 117 119 121 122 124 125 127 128 128 129 129 129 131 132 132 131 131 132 133 133 134 137 138 138 137 137 135 131 129 128 126 124
69 69 69 69 69 69 70 70 71 72 73 74 75 76 77 78 79 81 82 84 85 86 86 86 87 86 87 87 87 87 87 87 88 89 90 91 94 97 99 100 100 101 101 103 105 106 106 106 107 108 110 111 113 115 117 118 120 122 124 125 126 127 128 129 129 130 132 132 132 132 132 131 131 132 133 136 138 138 138 138 136 133 132 129 127
68 69 69 69 69 69 69 69 70 71 71 72 73 73 74 74 76 77 79 81 81 82 82 83 83 83 83 84 84 84 84 84 84 86 88 90 92 95 98 99 99 99 101 102 104 105 105 106 107 108 109 110 112 113 114 116 117 119 121 123 125 126 127 128 129 130 131 132 133 133 132 132 131 131 131 133 135 136 137 138 138 137 136 133 130
67 68 68 68 69 69 69 69 69 69 69 69 69 70 70 71 72 74 75 77 77 77 78 78 79 79 79 80 80 80 80 80 80 82 84 87 90 92 95 96 96 97 99 100 102 103 104 105 106 107 108 110 111 112 113 114 115 116 117 119 122 123 124 126 128 130 131 132 133 133 133 132 131 131 131 131 132 133 134 136 138 139 138 136 134
67 67 67 67 68 68 68 68 68 68 67 67 66 66 67 68 69 70 72 74 73 73 74 74 75 75 74 75 75 75 76 75 76 78 81 84 87 90 91 93 93 94 96 97 99 101 102 103 104 105 106 108 110 111 111 112 113 114 115 116 118 119 121 122 125 128 130 132 133 133 133 133 132 131 131 131 132 132 132 133 136 138 139 138 137
67 67 67 67 67 67 66 66 65 65 64 63 63 63 64 65 66 67 70 70 69 68 69 70 70 71 70 69 69 70 71 72 72 74 78 82 85 86 88 89 90 92 93 94 95 95 97 98 100 102 104 105 107 109 110 111 111 112 113 113 114 116 118 119 121 123 126 129 131 133 134 134 134 133 132 132 132 132 131 131 133 136 138 138 138
65 65 65 66 65 65 64 63 63 62 62 61 60 61 61 62 63 64 66 66 65 65 66 67 68 68 67 65 64 65 67 68 69 73 77 80 81 83 84 86 87 89 89 90 90 91 92 94 96 98 99 101 103 106 108 110 110 111 111 112 112 113 115 117 118 120 122 125 128 131 133 133 134 134 133 133 133 133 132 131 132 134 136 137 137
61 61 61 62 62 61 60 60 60 60 59 59 59 59 59 59 60 61 61 61 61 62 63 65 66 67 65 62 61 62 64 66 68 71 75 76 77 79 80 81 83 84 85 85 86 87 89 91 92 93 95 96 99 101 104 106 108 109 110 111 111 112 113 114 115 116 119 122 124 126 130 132 133 134 134 134 133 133 133 132 131 133 135 136 136
58 57 57 57 57 57 56 56 57 57 57 56 56 57 57 57 58 57 57 58 59 59 60 62 63 64 62 60 59 61 63 65 67 69 71 72 74 75 76 77 78 80 81 82 83 83 85 86 87 89 91 92 94 96 99 101 103 105 106 108 109 111 112 113 113 114 116 119 121 123 126 129 132 133 134 134 134 134 134 133 132 133 134 135 135
55 54 54 54 54 54 53 53 53 55 55 55 55 55 55 54 54 54 55 56 56 56 57 58 59 59 58 57 58 59 61 63 65 66 68 69 71 72 73 74 75 77 78 79 79 79 80 81 83 84 86 88 90 92 94 96 98 100 102 104 106 108 110 112 112 113 115 117 118 120 122 126 129 132 133 134 134 134 134 134 134 134 134 135 135
53 51 50 49 49 50 50 50 50 51 52 52 52 52 51 51 50 51 51 52 53 53 53 53 53 54 55 56 56 58 59 61 62 64 65 67 69 70 71 72 73 75 76 76 76 76 76 77 79 80 82 84 85 87 88 90 93 95 97 100 102 104 106 108 110 112 114 115 117 118 120 122 125 128 131 133 133 134 134 134 134 134 134 135 135
54 52 50 49 48 48 48 48 47 47 48 48 48 48 47 46 46 46 47 47 48 48 48 49 50 51 53 55 55 56 57 59 60 62 63 65 67 69 70 71 73 75 75 75 74 74 74 75 75 76 77 78 80 81 83 85 87 90 92 95 98 100 102 103 105 108 111 114 116 117 118 119 122 124 127 130 132 133 133 133 134 134 135 135 135
56 54 53 52 51 51 50 49 49 48 47 46 46 45 44 44 43 43 43 44 44 45 46 47 49 51 53 55 54 54 56 57 58 60 63 64 66 68 69 70 72 74 74 73 73 73 73 73 74 74 74 74 75 76 77 79 82 85 88 90 93 96 97 99 102 105 107 110 113 115 117 118 119 121 124 126 129 132 132 132 132 133 134 134 134
50 49 48 48 48 48 48 48 48 48 48 47 46 44 43 43 42 41 41 42 43 44 45 46 47 49 51 52 53 53 54 55 57 59 61 62 64 66 67 68 70 71 71 71 71 71 71 71 71 72 73 73 73 73 73 74 76 79 82 86 89 91 93 95 99 102 104 106 108 111 113 115 117 120 121 123 126 129 131 132 132 132 133 133 134
45 43 43 44 43 44 44 45 45 46 46 46 45 44 43 42 41 40 40 40 41 42 42 43 44 45 47 48 49 50 51 52 55 57 58 60 61 63 64 65 66 67 67 67 68 68 68 67 68 69 70 72 72 71 71 71 71 73 76 80 83 87 89 92 95 98 100 103 104 106 109 111 115 118 120 121 123 127 130 131 131 131 131 132 132
46 44 43 43 42 43 43 44 44 44 45 45 44 44 42 41 41 40 39 38 39 40 40 41 42 42 43 44 46 47 48 50 53 54 55 57 58 59 60 61 63 64 64 63 63 63 62 63 65 66 68 69 70 70 69 69 69 70 72 75 78 82 86 89 91 93 96 99 101 103 105 107 110 114 117 119 121 124 127 130 131 130 129 129 130
49 47 45 44 44 43 42 43 43 43 43 43 43 43 42 41 40 39 38 37 38 39 39 39 40 41 41 42 43 45 46 48 49 50 51 53 54 56 57 58 59 60 60 59 57 56 57 60 62 63 64 65 66 67 67 67 67 68 70 72 74 78 82 85 88 90 91 93 97 100 102 105 107 109 111 115 118 120 124 128 130 131 129 128 128
53 51 49 47 45 44 43 42 42 42 42 42 42 41 41 40 39 38 37 37 37 38 38 39 39 39 40 40 41 41 43 44 44 46 47 48 50 51 53 55 56 57 56 54 52 53 55 55 57 58 60 62 63 63 64 65 65 66 67 69 72 75 78 81 84 86 87 89 91 95 99 102 104 105 106 109 113 117 120 123 127 130 130 128 127
55 54 51 49 47 45 43 42 41 40 40 39 39 39 39 38 38 37 37 36 36 36 36 36 36 36 36 36 37 38 39 40 41 42 44 45 47 48 50 53 54 54 53 49 48 51 52 51 53 56 58 59 60 61 62 62 63 64 65 67 69 72 75 78 80 82 83 85 87 90 95 99 101 102 102 104 108 111 115 119 123 127 129 129 128
55 53 52 50 49 47 45 42 40 39 38 38 37 37 37 37 37 36 36 35 34 34 34 33 33 33 33 33 34 36 37 38 39 40 41 42 44 46 48 49 51 52 51 49 48 49 49 49 51 52 54 56 57 58 60 60 61 62 64 65 67 69 71 74 76 79 80 82 83 86 89 92 95 97 99 101 103 105 109 114 118 123 127 128 128
55 54 52 51 49 48 46 44 41 39 38 37 36 35 35 34 34 34 33 32 31 31 31 31 31 31 30 31 31 33 34 35 36 37 38 39 41 44 45 46 48 50 50 49 49 48 47 48 48 49 51 53 54 56 58 58 59 61 62 64 65 67 69 71 74 76 77 79 80 82 84 86 89 92 95 97 98 100 103 107 112 117 122 126 128
60 58 56 54 51 48 46 44 42 40 38 37 35 34 33 32 31 31 30 30 29 29 28 28 28 28 28 28 29 30 31 32 34 35 35 36 38 42 44 45 46 48 48 49 48 46 44 44 45 47 49 50 52 53 55 56 57 59 60 62 63 65 67 69 71 73 75 76 77 79 80 82 85 88 91 93 95 96 99 102 105 110 116 121 125
67 64 61 58 55 51 47 44 42 40 39 37 36 34 32 31 30 29 29 28 28 27 27 26 26 26 26 26 27 28 29 30 31 32 32 33 35 40 43 44 45 46 46 46 45 44 42 42 43 45 46 47 49 50 51 53 55 57 58 59 61 63 64 66 68 70 72 73 75 76 77 79 81 84 87 89 91 93 95 97 101 105 109 115 121
69 66 64 61 58 54 50 46 43 41 39 37 35 34 32 31 30 29 28 27 26 26 25 24 24 24 24 24 25 26 27 28 28 29 29 31 34 38 41 42 42 42 43 43 43 42 40 39 40 42 43 44 46 47 48 50 52 54 56 57 58 60 62 64 65 67 68 70 72 73 74 76 77 79 82 85 88 90 92 94 97 101 105 109 115
69 67 65 63 60 57 54 50 47 44 41 39 36 34 32 31 30 29 28 27 27 26 25 25 24 24 23 24 24 25 25 26 26 26 27 28 31 35 38 38 38 39 40 40 40 40 38 38 39 40 41 41 42 43 45 47 49 52 53 55 56 58 59 61 63 64 66 67 69 70 71 73 74 76 78 80 83 85 87 90 94 97 100 104 109
70 69 67 65 63 60 57 54 51 48 46 43 40 37 34 32 30 29 27 26 26 25 25 24 24 24 23 23 23 24 24 24 24 24 24 26 29 31 33 33 34 35 36 37 36 36 36 35 36 38 38 38 39 40 42 43 46 48 51 52 54 55 57 59 60 62 63 64 66 67 68 70 71 73 75 76 78 81 83 86 89 93 95 98 102
71 70 69 67 64 61 58 55 52 50 48 45 43 40 37 34 32 30 28 26 24 23 22 21 21 21 20 20 21 21 22 23 23 22 22 24 26 27 28 28 29 31 32 32 32 32 32 32 33 36 37 37 37 38 39 41 42 44 47 49 51 53 54 56 58 59 61 62 63 64 66 67 69 70 71 73 75 77 79 81 84 88 90 93 97
73 71 70 69 66 62 59 55 52 50 48 46 44 42 40 37 35 32 30 28 27 25 23 21 20 19 18 17 17 17 18 19 19 20 20 21 23 25 25 25 26 26 27 27 28 28 29 30 32 34 36 37 37 37 38 39 40 42 44 46 48 50 52 54 55 56 57 59 60 62 63 65 66 67 69 70 71 73 75 77 80 83 86 89 92
75 72 71 69 67 64 60 57 54 52 51 48 46 44 42 40 37 34 31 30 28 27 25 23 22 20 18 17 17 16 16 16 16 17 17 19 20 22 23 23 24 24 24 24 25 26 28 29 30 32 34 35 35 36 36 37 39 40 42 44 46 47 49 51 52 54 54 55 57 59 60 61 63 64 66 67 68 70 71 73 76 79 82 84 87
76 74 72 70 67 64 61 57 55 53 51 49 47 46 44 41 39 37 34 32 30 28 26 25 23 22 20 19 18 18 17 16 16 15 15 16 17 19 20 21 22 22 22 22 23 24 26 27 28 29 30 32 33 34 35 35 37 38 40 42 44 45 46 48 49 50 51 52 53 55 56 58 59 61 62 63 65 66 68 70 72 75 78 80 82
78 76 73 71 68 66 63 59 56 53 51 49 47 45 44 43 41 39 37 35 33 31 29 27 25 24 22 21 19 18 17 17 16 15 15 15 15 16 17 18 19 20 20 21 21 22 23 25 25 26 27 28 30 32 32 33 34 36 38 40 41 42 43 44 45 46 47 49 50 51 52 53 55 57 58 59 60 61 63 66 69 71 74 77 79
82 78 76 73 71 68 65 62 59 56 54 51 48 46 45 43 41 39 37 35 34 33 31 29 27 25 23 21 19 18 16 16 15 15 14 14 14 14 14 15 16 17 18 19 20 21 22 23 24 24 25 26 27 29 30 30 31 33 35 37 38 39 40 41 42 43 45 46 47 48 49 50 51 52 53 54 55 57 59 61 64 68 71 74 76
84 81 79 77 74 71 68 66 63 59 57 54 51 49 47 45 42 40 38 36 34 33 32 30 28 25 23 21 19 18 16 15 14 14 13 13 13 13 13 14 14 15 16 17 18 19 20 21 22 22 23 23 25 27 28 29 30 31 32 34 35 36 37 38 39 40 42 44 45 46 46 47 48 48 48 50 52 54 56 58 60 63 66 70 72
87 84 81 79 77 74 72 69 66 62 59 56 54 52 50 47 45 42 39 37 35 34 32 30 28 26 24 23 21 19 17 16 14 14 13 13 13 13 13 13 13 14 14 15 16 17 18 19 20 20 20 21 22 23 25 27 28 29 30 32 33 34 34 35 36 37 39 40 42 43 45 45 45 45 45 47 49 51 53 55 57 59 62 64 65
89 86 83 80 78 76 73 71 67 64 61 58 56 54 52 50 47 44 41 38 36 34 32 30 28 26 25 24 23 21 19 17 15 15 14 13 13 13 12 12 12 12 13 13 14 14 15 16 17 18 18 18 19 20 21 23 25 27 28 30 31 32 33 33 33 34 35 37 38 40 42 43 44 44 44 46 47 49 51 53 55 57 59 59 59
91 88 86 83 80 77 75 72 69 65 62 59 57 54 52 50 48 46 43 40 38 36 33 31 29 28 26 25 24 22 20 18 17 16 15 15 15 14 14 13 13 12 12 12 12 13 13 14 15 15 16 16 17 18 19 21 22 24 26 27 28 30 31 31 31 32 32 33 34 36 38 40 42 43 44 45 47 48 50 52 54 55 55 55 57
95 91 87 85 81 78 76 74 71 67 64 60 57 54 52 50 48 46 44 42 40 38 36 34 32 30 29 27 25 22 21 19 18 17 16 16 16 15 15 14 14 14 13 13 13 12 13 13 13 14 14 15 16 17 18 19 20 21 23 24 26 27 28 29 30 30 31 31 32 34 36 38 40 42 43 45 46 47 49 51 53 52 52 53 54
98 94 90 86 83 80 77 75 72 69 66 62 59 56 53 51 49 47 45 43 41 39 37 36 34 32 31 29 26 24 22 21 19 18 17 17 16 15 15 15 14 14 14 14 13 13 12 12 12 13 13 13 14 15 15 17 18 19 21 22 24 25 26 27 28 29 30 31 31 32 34 36 38 41 42 44 45 46 48 50 51 50 49 50 51
101 97 92 88 84 81 78 76 74 72 69 65 62 59 56 53 50 48 46 44 41 39 37 35 34 33 31 30 28 26 24 23 21 20 19 17 17 16 15 15 14 14 14 13 12 12 12 11 11 11 11 12 12 13 13 14 15 16 18 19 21 22 24 25 26 27 28 30 31 31 32 33 35 38 39 41 43 44 46 48 49 48 47 48 50
104 100 96 91 86 83 80 77 75 73 72 69 65 62 59 56 53 50 48 45 42 39 37 35 33 31 30 29 27 26 25 24 23 21 20 19 18 17 16 15 15 14 13 13 12 11 11 11 10 10 10 10 10 11 11 12 12 13 14 15 17 19 20 21 23 25 26 28 29 30 31 31 33 34 35 37 40 43 45 46 47 46 45 46 48
108 103 99 95 90 86 83 80 78 75 74 72 68 65 61 58 54 51 49 46 43 40 38 35 33 31 29 27 26 25 24 24 23 21 21 19 18 17 16 15 14 14 13 13 12 12 11 11 11 11 10 10 10 10 10 10 11 11 12 13 14 15 17 18 20 21 23 25 26 27 28 29 30 31 32 34 36 39 40 42 43 44 44 45 46
112 107 102 99 95 90 86 83 80 78 75 73 71 68 64 60 56 53 50 47 45 42 39 36 33 31 29 27 26 25 24 23 22 22 21 20 19 18 17 16 15 14 14 13 13 13 13 12 12 12 12 12 11 10 10 10 10 10 11 11 12 13 14 15 17 18 20 21 22 23 24 25 26 28 29 30 32 33 35 37 39 41 41 42 43
116 110 105 101 97 94 89 86 83 80 77 74 72 70 67 64 60 56 52 48 46 44 41 38 35 33 30 28 27 26 25 24 23 22 21 21 20 19 18 17 16 15 14 13 13 12 12 12 12 12 12 12 12 11 11 10 10 9 10 10 11 12 12 13 15 16 17 19 19 20 20 21 22 24 25 27 28 29 31 33 35 37 38 38 39
121 115 109 104 99 96 92 88 85 82 79 76 73 71 69 67 63 60 56 52 48 45 43 40 37 34 32 30 28 27 26 24 23 22 21 21 20 20 19 18 17 16 15 14 13 12 11 11 10 10 10 10 10 10 9 9 9 9 9 9 10 11 11 12 13 14 15 16 17 18 18 18 18 19 21 22 24 26 28 30 32 33 35 35 35
126 120 114 108 102 98 95 92 88 84 81 78 75 72 70 68 66 63 59 55 51 48 46 43 41 38 35 32 30 29 27 26 25 24 22 21 21 20 20 19 18 17 17 15 14 13 11 10 9 9 8 8 8 7 7 7 7 6 6 7 8 9 10 11 12 13 13 14 15 16 16 17 17 17 18 19 20 22 24 27 29 31 32 33 33
Wind_Direction
279 277 275 273 271 270 269 268 267 267 266 266 267 267 267 266 266 265 264 263 263 262 261 261 261 260 260 259 259 258 257 257 256 256 256 255 255 254 254 254 254 253 252 252 251 250 250 250 250 249 249 249 249 249 248 248 247 247 247 246 246 246 245 245 245 246 246 247 247 247 246 246 246 246 245 245 244 244 245 245 245 245 245 245 245
281 279 277 275 273 272 271 270 268 267 267 266 265 265 265 265 265 265 264 264 263 263 262 262 262 262 262 261 261 260 259 259 258 257 257 256 256 255 255 255 254 254 253 252 252 251 250 250 250 250 250 249 249 249 249 249 248 248 247 246 246 245 245 245 245 245 245 245 246 247 246 246 246 246 246 246 245 244 244 244 245 245 245 245 245
284 281 279 276 275 273 272 271 270 269 268 267 266 265 265 265 265 264 264 264 263 263 263 263 262 262 262 262 261 261 261 260 259 259 258 258 257 257 256 255 255 254 254 253 253 252 252 251 250 250 249 250 249 249 249 249 249 249 248 247 246 246 245 245 245 244 244 244 245 245 246 246 246 246 246 246 246 245 244 244 244 244 244 244 244
287 284 281 279 277 275 273 272 271 270 269 268 267 267 266 265 265 264 263 263 263 262 262 262 262 261 261 260 260 260 260 260 259 259 258 258 258 257 256 256 255 254 254 254 253 253 252 252 251 250 250 249 249 249 249 249 249 249 248 248 247 247 246 245 245 245 244 243 244 244 244 245 245 245 246 246 246 245 244 243 243 243 244 244 244
290 288 285 283 280 277 275 273 272 270 269 268 268 267 266 266 265 265 264 264 263 263 262 262 261 261 261 260 260 259 259 258 258 258 258 257 257 256 256 255 255 254 253 253 253 252 251 251 250 250 250 249 249 248 248 248 248 248 248 248 248 247 246 246 245 245 244 243 243 243 243 243 244 244 245 245 245 245 245 244 243 243 243 243 243
292 290 288 285 283 280 278 276 274 272 270 269 268 267 266 266 265 265 265 265 264 264 263 262 262 261 261 260 260 259 259 258 258 257 257 257 257 256 256 255 254 253 253 253 252 251 251 250 249 249 248 248 248 247 246 246 247 247 247 247 247 247 247 246 246 246 245 244 243 243 242 243 242 243 243 244 245 245 245 245 244 243 243 243 243
293 291 289 286 284 282 280 278 277 274 273 271 270 268 267 266 266 266 265 265 265 264 264 263 262 261 261 260 260 259 258 258 258 257 256 256 256 256 255 254 254 253 252 252 252 251 250 250 249 249 248 247 246 246 245 244 244 244 245 245 246 246 246 246 246 246 246 245 244 243 242 242 242 241 242 243 243 244 245 245 244 244 243 243 243
293 292 290 288 286 284 282 280 279 277 275 274 272 271 269 268 268 267 267 266 266 265 264 264 263 262 262 261 260 259 258 257 257 257 256 255 254 254 254 254 253 253 252 251 251 250 249 249 248 248 247 247 246 245 245 244 243 243 242 243 243 244 245 245 245 245 245 245 244 244 243 242 241 241 241 242 242 242 243 244 244 244 244 243 243
295 294 292 291 289 287 285 283 281 280 278 277 276 275 273 272 271 269 268 268 267 266 266 265 264 264 263 263 262 261 260 258 257 257 257 256 255 255 254 254 253 253 252 251 251 250 250 249 248 248 247 247 246 245 245 244 243 242 241 241 241 241 242 243 243 243 244 244 244 244 243 242 242 241 241 241 241 241 242 243 244 244 244 244 243
298 297 295 294 292 290 289 287 285 284 282 281 279 278 276 274 273 272 271 269 268 267 266 266 265 264 263 263 262 262 261 260 259 258 258 257 256 256 255 255 254 253 252 252 251 251 250 249 249 248 248 248 247 246 245 245 244 243 241 241 241 240 240 241 242 243 243 243 243 243 243 242 241 241 241 241 241 241 241 242 243 243 243 243 243
302 301 299 296 294 293 292 291 289 288 286 284 282 280 278 277 275 273 272 270 269 268 267 267 266 266 264 264 263 262 262 261 260 258 258 257 256 255 255 255 254 253 252 251 250 250 250 250 249 249 249 249 249 248 247 246 245 244 243 241 240 240 239 239 240 241 242 243 243 242 242 242 241 241 240 240 240 240 240 240 241 242 242 242 242
306 304 301 299 297 296 295 293 292 290 288 286 284 281 279 277 276 274 273 272 272 272 271 270 269 267 266 264 263 262 262 261 260 258 256 255 254 254 254 255 254 254 253 252 251 250 250 249 249 248 248 248 248 248 248 248 247 246 245 243 242 241 239 238 237 238 240 242 242 243 242 241 241 240 239 240 240 240 239 239 240 241 242 241 241
307 305 303 301 299 298 297 295 293 291 290 288 286 283 280 278 276 274 274 274 275 274 273 272 271 269 268 265 263 262 261 260 259 257 256 255 254 254 254 254 254 254 253 253 253 252 251 250 249 248 247 247 247 247 247 247 247 247 246 245 244 243 241 240 238 237 237 239 240 242 242 242 241 241 239 239 239 239 239 239 239 240 241 241 241
308 306 304 302 301 299 298 296 293 292 290 288 286 284 282 280 278 276 276 275 274 273 272 271 270 270 269 268 266 264 262 260 258 257 257 257 256 256 255 255 255 254 254 253 252 251 251 250 249 249 248 247 247 246 246 246 246 246 246 246 246 245 244 242 240 239 237 236 237 239 241 242 242 241 240 239 238 238 239 238 238 239 240 241 240
311 308 306 303 302 300 298 296 294 291 289 287 285 283 281 280 279 279 278 276 275 273 271 270 270 270 271 270 267 265 263 262 260 259 259 259 258 258 257 256 256 255 254 253 252 251 250 250 250 249 248 248 247 246 246 246 246 246 245 245 245 245 245 244 243 242 240 238 236 236 238 240 241 241 241 240 238 238 238 238 237 238 239 240 240
314 312 310 307 305 302 300 297 294 292 291 288 286 284 283 282 281 280 278 277 276 275 273 273 273 273 273 271 267 265 263 262 261 260 260 260 259 259 258 258 257 256 255 254 253 252 251 250 250 249 248 248 247 246 246 245 245 245 245 245 244 243 243 243 243 242 242 241 238 236 236 237 239 241 241 240 239 238 237 237 237 237 237 239 240
319 316 313 310 307 304 301 299 296 294 293 291 289 288 287 285 284 282 281 280 279 278 277 276 276 274 272 269 266 264 263 261 261 260 259 259 259 259 259 258 258 258 257 256 256 254 253 252 251 249 248 248 247 246 245 245 244 244 244 244 244 243 242 241 241 241 241 241 241 238 236 235 236 239 240 241 240 239 238 237 236 236 236 237 238
325 323 319 316 312 309 307 304 301 298 296 295 294 293 291 289 286 284 282 281 280 279 278 276 274 271 268 266 264 262 261 261 260 260 259 258 258 258 258 258 258 258 258 258 258 257 256 256 255 253 251 249 248 247 246 245 244 244 243 243 243 243 242 241 240 240 239 240 240 240 238 236 235 236 238 240 241 241 239 238 237 236 236 236 237
330 328 325 322 320 318 315 312 309 306 304 301 299 297 294 292 289 286 283 281 278 276 273 270 268 267 265 265 264 262 261 260 259 259 259 258 258 258 258 258 258 259 259 259 259 258 257 257 257 256 255 253 251 249 247 245 244 243 242 242 242 241 241 241 241 240 239 238 238 239 239 238 236 235 235 237 240 241 241 239 238 237 236 235 235
330 327 324 322 320 318 316 314 312 310 308 305 303 300 297 294 291 288 285 282 279 276 273 271 269 268 267 267 266 265 263 262 261 259 259 258 258 258 257 257 258 258 259 259 259 259 258 258 257 257 257 256 255 252 250 247 245 243 242 241 241 241 241 240 240 240 240 239 238 238 238 238 238 236 235 234 236 239 241 241 239 238 237 236 235
333 329 326 323 321 318 316 314 312 311 309 307 305 303 300 298 295 292 289 286 283 281 279 276 274 272 271 270 269 267 266 264 262 260 259 259 258 258 258 258 258 258 258 258 258 258 258 258 257 256 256 255 255 254 252 250 247 245 243 241 240 240 241 240 239 239 239 239 239 238 238 237 237 237 236 234 233 235 239 241 241 240 238 238 236
340 336 332 329 326 323 320 317 315 312 310 307 306 304 302 300 297 295 293 289 286 284 281 278 276 274 271 269 268 266 264 262 261 260 260 260 259 259 259 258 258 258 258 257 257 257 256 256 255 254 253 253 253 253 252 250 248 246 244 242 240 239 239 240 240 239 239 238 239 239 238 238 237 236 236 235 233 233 235 238 240 241 240 239 238
345 342 339 335 332 328 324 321 317 314 312 310 308 306 304 302 299 297 294 291 288 286 284 281 278 276 274 271 269 267 265 264 263 262 261 261 261 260 260 259 259 259 259 258 258 257 255 254 253 253 253 253 252 252 251 250 248 247 245 243 241 240 239 239 239 240 239 238 238 238 238 238 238 237 236 236 235 233 233 235 238 241 241 240 239
348 346 343 339 336 332 329 325 321 318 315 312 310 308 306 304 302 300 297 294 291 289 286 284 281 279 277 275 272 270 268 266 265 263 262 261 260 260 261 261 260 260 260 259 258 257 254 253 253 253 252 251 251 250 250 249 248 247 245 243 242 241 240 239 239 239 240 239 238 237 237 238 238 238 237 236 235 234 233 233 235 239 241 240 240
351 349 346 342 339 336 332 329 325 321 317 315 312 310 307 305 303 300 298 295 292 289 286 283 281 279 276 274 272 270 267 265 263 262 261 260 260 259 259 261 261 262 262 260 257 255 255 253 251 250 250 250 250 249 249 248 247 246 245 244 242 241 240 240 240 240 240 239 238 238 237 238 238 239 238 237 236 235 234 233 233 236 239 240 240
355 352 349 346 343 339 337 333 330 326 322 318 315 312 309 307 305 302 300 297 294 290 287 284 282 279 277 274 272 270 268 266 263 261 260 260 259 258 258 259 261 262 263 261 259 256 256 254 252 252 251 251 250 250 249 248 247 246 245 244 243 242 240 239 239 239 239 239 239 238 238 238 239 239 239 239 238 236 235 234 233 234 236 239 240
357 355 353 351 348 344 341 338 335 331 327 324 320 317 313 311 308 306 303 301 297 294 291 288 285 282 279 275 272 269 268 266 264 263 261 260 261 261 261 261 261 262 262 262 260 258 257 255 254 253 252 252 251 250 250 249 248 247 246 245 244 242 240 239 238 238 238 238 238 238 238 238 238 238 239 239 239 238 237 236 234 233 234 237 239
359 358 357 355 353 350 346 343 340 337 334 331 328 324 321 318 314 311 307 304 301 297 293 290 287 284 280 276 272 269 266 264 264 263 262 261 261 261 262 262 261 261 262 262 262 260 258 255 253 252 252 252 251 250 250 250 249 248 246 245 244 243 241 240 238 237 237 237 238 238 238 237 237 237 237 238 238 238 237 236 235 234 233 234 237
0 359 358 357 356 354 351 348 345 343 340 337 335 331 328 325 321 316 312 308 305 301 297 293 290 286 282 278 275 271 268 265 264 263 261 259 257 257 259 260 260 261 263 263 263 262 259 255 253 252 252 251 251 250 249 249 248 248 246 245 244 243 242 241 239 238 237 237 237 237 237 237 237 237 237 237 237 237 237 236 236 234 233 233 234
1 0 360 359 358 356 354 353 351 349 346 343 340 337 334 331 327 323 319 315 311 308 303 299 295 291 287 282 278 275 272 268 265 262 259 256 253 254 256 258 259 261 262 263 263 262 261 258 256 255 253 251 250 249 248 247 247 247 246 245 244 243 242 241 239 238 237 237 237 237 237 237 237 237 237 237 237 237 237 236 236 235 234 232 233
2 2 1 1 360 358 356 355 354 353 351 349 346 344 341 338 334 330 326 323 319 316 313 309 305 300 296 291 286 282 278 273 268 263 259 255 252 253 255 257 259 260 260 262 263 263 263 262 260 258 256 254 251 249 248 247 246 246 245 245 244 243 241 240 240 239 238 237 237 237 237 237 237 237 237 237 238 237 237 237 236 236 235 234 233
4 4 3 3 2 360 358 357 356 355 354 352 351 349 347 344 341 337 333 329 326 322 318 315 311 308 304 299 295 291 287 283 278 271 264 258 255 255 256 257 257 257 258 260 261 263 263 263 262 262 260 257 254 251 249 248 247 246 245 244 243 243 242 240 239 239 238 238 237 237 237 237 237 237 237 237 238 238 237 237 237 237 237 236 235
6 6 5 4 3 2 360 358 358 357 356 355 353 352 351 349 347 344 341 337 334 330 325 320 316 312 308 303 299 295 292 289 285 281 274 267 263 261 259 258 258 258 259 260 261 262 262 261 260 260 259 257 254 251 249 247 246 245 245 244 244 243 242 241 240 239 238 238 238 237 237 237 237 237 237 237 237 237 237 237 237 237 237 237 236
9 8 7 6 5 3 2 0 360 360 359 357 356 355 354 352 351 349 346 344 342 339 336 332 327 322 317 312 306 300 295 291 288 284 280 274 269 266 263 261 259 259 260 260 260 260 258 256 255 255 257 256 255 253 250 247 245 243 243 243 242 242 242 242 241 240 239 238 238 237 237 237 237 237 236 236 237 237 237 237 237 237 238 237 237
11 10 9 8 6 5 4 3 2 2 1 0 359 358 357 355 354 352 350 348 347 345 342 340 337 333 330 326 321 314 307 300 293 288 284 279 274 271 268 263 260 259 258 257 257 256 255 254 253 253 255 256 255 254 252 249 246 244 242 241 241 240 240 241 241 241 240 239 238 238 238 238 238 238 237 237 237 237 237 236 236 237 237 238 238
12 12 11 10 9 7 6 5 4 4 3 2 1 1 359 358 356 355 354 353 351 350 348 346 344 342 339 336 331 326 319 312 305 299 292 286 281 277 273 268 265 262 261 260 258 257 257 256 255 253 253 255 256 255 252 250 247 245 243 242 242 241 241 241 241 241 241 240 239 239 239 238 238 239 239 238 237 237 237 237 237 237 237 238 238
13 13 12 11 10 9 8 7 6 6 5 5 4 3 2 0 359 357 356 355 354 354 352 351 348 346 344 341 336 331 326 320 314 307 301 294 288 282 277 273 269 267 266 263 261 260 258 257 256 254 252 252 254 254 254 251 249 247 245 244 244 243 242 242 242 242 241 241 240 239 239 238 238 238 239 239 239 237 236 236 237 237 237 237 238
13 13 13 12 11 11 10 9 8 7 6 6 6 6 5 3 1 359 358 357 356 356 354 353 351 349 346 343 339 335 330 325 320 314 308 301 295 289 283 278 274 271 269 267 265 263 262 261 260 258 255 252 252 254 254 252 251 249 248 246 246 245 244 243 242 242 242 241 241 240 239 238 237 237 238 239 239 239 237 236 235 235 236 237 237
13 14 14 13 12 11 11 10 9 8 7 6 6 6 6 5 3 1 0 360 359 358 356 354 353 351 350 347 345 341 337 332 326 321 315 309 303 297 291 285 280 276 273 271 270 268 267 266 265 264 261 258 255 255 254 253 251 249 249 248 248 247 245 244 243 242 242 242 242 241 240 239 238 236 236 236 238 238 238 238 236 236 236 236 236
14 14 14 14 13 12 12 11 9 8 7 7 6 6 5 5 4 3 2 2 1 0 358 357 356 355 354 352 351 348 346 342 337 331 324 318 311 306 300 295 290 286 281 277 273 271 269 268 266 265 263 261 258 256 256 255 252 250 249 248 249 248 247 245 245 244 243 243 243 242 241 241 240 238 236 235 236 237 238 239 238 238 237 236 237
15 14 14 15 15 14 13 12 10 9 7 7 7 6 5 4 4 4 3 3 2 2 1 1 0 360 359 357 355 353 352 350 346 341 336 330 324 320 315 310 304 298 291 285 280 276 272 269 267 265 263 262 260 258 257 256 255 253 251 250 250 251 250 248 247 246 245 245 244 243 243 242 241 239 237 236 235 236 237 238 238 238 238 238 237
15 15 15 15 15 15 14 13 12 10 9 8 7 6 5 4 4 4 3 3 2 2 1 2 1 1 0 359 358 357 357 356 354 350 346 342 338 335 331 325 319 313 306 299 292 287 283 278 275 271 267 263 260 257 255 254 254 254 254 253 252 252 252 252 250 248 246 245 243 242 242 241 241 240 238 237 236 235 236 237 238 238 238 238 237
15 15 15 15 15 15 15 14 13 12 10 10 8 7 7 6 5 5 4 2 2 1 0 0 0 1 1 1 1 1 1 1 359 357 355 352 348 345 340 335 330 324 319 314 309 304 300 295 291 285 279 274 267 262 258 255 254 254 255 254 254 253 253 252 251 249 247 245 242 240 238 238 238 238 237 237 237 236 236 237 237 237 238 238 237
14 15 15 15 15 15 15 15 14 13 12 11 10 9 8 8 8 7 5 3 2 0 359 359 359 360 1 2 2 2 2 3 3 2 2 360 356 353 348 343 339 334 329 326 321 317 313 308 303 298 292 286 279 272 265 260 257 254 253 254 254 254 254 254 253 252 250 248 244 241 238 237 236 236 236 236 237 236 236 237 237 236 236 237 237
14 14 15 15 15 15 16 16 15 15 14 13 11 10 9 9 9 9 7 5 3 1 360 359 359 359 360 1 1 1 2 3 3 3 3 3 1 359 355 352 348 344 340 335 330 326 322 317 312 306 301 295 289 283 276 270 263 259 256 254 253 253 252 252 253 253 252 250 248 245 242 240 238 237 237 237 237 237 237 238 238 236 235 235 236
14 14 14 15 15 15 15 16 16 16 15 14 13 12 10 9 9 9 9 7 5 3 1 0 359 360 0 0 1 1 2 3 4 3 4 3 3 1 359 356 353 350 347 343 340 336 331 327 321 315 310 304 297 291 285 279 274 268 263 259 256 253 251 249 249 249 250 250 249 248 245 243 241 239 238 237 237 237 238 238 238 237 235 234 235
15 14 13 14 14 15 15 15 16 16 16 15 14 13 12 11 10 9 10 9 7 5 3 2 1 0 1 2 2 3 3 4 5 6 6 5 4 3 1 359 356 353 350 348 345 342 338 334 330 325 321 316 309 303 296 289 283 277 270 265 260 256 252 249 246 245 246 246 247 247 247 246 245 243 240 238 237 238 239 239 239 238 235 233 233
15 15 14 13 13 14 15 15 15 16 16 16 15 14 13 12 11 10 10 10 9 7 5 4 3 2 2 3 4 5 6 7 7 8 9 9 7 5 3 1 359 357 355 352 348 345 342 338 334 331 327 323 319 314 309 302 295 288 280 273 267 263 258 254 250 247 246 245 244 244 245 245 245 245 244 242 241 239 239 239 240 239 237 234 233
15 15 15 14 13 13 14 14 15 15 16 15 15 14 14 13 12 11 11 11 11 10 8 6 5 5 5 4 5 7 8 10 10 11 12 12 11 9 6 4 3 1 360 357 354 350 345 341 336 333 329 325 321 318 316 311 305 299 291 282 275 270 264 259 255 252 250 248 247 246 244 242 242 242 243 243 243 241 240 240 240 240 239 237 234
13 14 15 15 14 13 13 14 14 14 15 15 15 15 14 13 12 11 11 11 11 12 11 9 7 7 6 6 7 8 9 11 12 13 14 15 15 13 10 8 7 6 4 3 2 359 354 348 343 339 334 329 325 322 319 315 312 307 299 290 282 276 270 264 260 256 255 253 252 250 248 245 242 240 239 240 239 239 239 239 239 239 239 238 236
12 13 14 14 15 14 13 13 13 14 14 14 14 14 14 14 13 12 11 10 10 11 11 10 9 8 7 7 7 8 10 12 14 14 16 17 17 16 14 12 11 11 10 8 6 3 360 357 354 350 345 340 337 332 325 319 317 312 301 289 280 275 272 268 265 261 258 257 257 255 253 249 245 241 238 236 235 235 236 236 236 237 237 237 236